Theta_e
312 313 314 313 313 315 322 324 325 327 328 329 330 330 330 330 330 329 329 329 328 327 326 325 326 326 324 321 319 318 319 319 319 317 317 318 319 321 321 322 320 319 319
309 310 311 312 313 314 313 313 318 322 323 326 327 328 329 329 329 329 329 329 329 328 328 326 325 324 323 322 321 321 320 320 320 320 319 320 321 322 322 322 320 321 318
307 307 308 309 310 312 314 314 314 312 315 320 322 326 327 327 327 328 328 329 328 329 328 328 328 326 324 324 323 322 322 322 322 320 320 322 322 323 323 322 320 320 317
302 304 305 307 308 309 309 313 314 314 313 313 318 320 324 326 327 328 328 327 329 328 329 328 328 328 327 325 324 323 323 322 322 322 322 322 322 323 322 321 320 320 319
300 301 301 302 304 307 308 308 312 314 314 313 313 317 319 323 325 326 327 328 328 328 327 327 328 327 327 327 325 325 324 324 320 320 322 322 321 322 321 321 320 319 318
298 299 300 301 302 303 305 308 308 310 313 313 313 312 317 317 319 325 326 326 325 327 326 328 328 327 326 326 326 326 326 323 320 320 321 322 323 323 322 320 320 317 315
295 297 298 299 300 301 302 304 307 309 309 312 313 313 312 312 314 319 322 324 325 326 326 326 327 327 326 326 325 326 325 325 325 325 324 324 324 323 322 321 319 317 316
292 292 294 296 298 299 301 302 303 306 309 308 310 313 312 313 312 311 311 317 321 324 326 325 326 326 326 326 326 326 326 325 324 324 325 324 324 323 322 322 321 318 316
291 291 291 292 294 296 298 300 301 303 306 308 308 308 311 313 312 311 311 312 316 319 322 323 325 326 326 326 326 326 326 326 326 325 325 324 324 322 321 320 317 316 313
289 290 289 289 290 292 294 296 299 300 303 305 307 308 307 308 312 312 310 310 315 316 319 320 323 323 326 325 326 326 325 325 325 325 323 322 321 319 319 320 318 315 313
286 287 288 288 288 289 291 292 294 298 300 303 305 307 308 307 308 310 311 309 310 315 316 319 320 323 324 325 324 326 326 324 324 324 324 321 319 319 317 316 315 314 312
283 285 286 287 287 288 289 290 292 290 294 297 299 303 305 305 304 306 308 308 308 310 316 316 319 320 320 323 323 324 324 323 323 323 323 319 319 315 316 315 313 311 307
282 283 284 285 286 286 287 287 288 288 289 291 292 294 299 300 299 300 302 305 306 307 308 313 314 317 320 320 322 322 323 323 322 321 319 316 316 316 314 312 307 305 303
281 282 282 283 284 285 285 284 284 285 288 289 291 292 293 294 294 295 299 301 303 305 306 309 312 314 317 318 320 320 321 321 321 321 319 316 315 312 311 309 306 303 301
280 280 281 281 281 281 282 281 282 283 285 287 289 291 292 293 293 294 294 295 297 300 302 306 310 312 313 315 316 317 317 318 318 316 314 314 312 310 309 306 304 302 300
279 279 280 279 279 279 278 280 283 283 285 287 289 291 292 293 293 294 294 295 296 298 300 303 306 308 310 312 313 313 313 313 313 312 312 312 312 309 307 304 302 300 298
278 278 279 279 278 277 277 276 276 282 284 285 287 289 290 290 292 293 294 295 296 297 299 300 300 302 305 307 309 311 312 313 311 309 309 309 308 307 305 303 301 299 297
278 278 277 278 277 277 277 277 275 274 276 280 284 284 287 289 291 293 294 295 296 296 297 297 297 298 300 301 304 306 306 307 307 306 306 306 306 305 303 301 300 298 295
275 275 276 276 277 276 276 277 276 276 274 275 278 282 283 285 288 290 292 292 293 295 295 296 296 296 298 299 300 301 302 303 305 305 304 303 303 302 301 300 299 297 295
273 272 272 273 274 275 275 274 275 275 275 274 274 274 275 281 283 284 285 286 289 290 291 292 294 295 295 296 298 299 300 300 300 301 300 300 299 300 298 297 295 294 293
271 272 271 271 271 271 271 272 272 273 274 273 274 273 271 276 276 277 278 279 281 284 287 289 291 291 293 294 294 296 297 298 298 297 297 296 296 294 293 293 293 292 292
269 270 270 270 270 270 269 269 269 269 271 272 273 274 274 274 274 275 275 276 276 278 280 284 286 288 290 290 292 293 294 294 294 294 294 294 294 292 292 291 289 290 290
269 268 269 269 269 269 268 268 268 268 268 268 269 270 272 272 272 272 273 274 275 276 277 278 282 285 285 287 288 289 290 291 292 293 292 292 291 290 290 290 290 290 288
268 268 267 268 267 267 267 267 267 267 267 267 267 268 268 268 269 271 272 272 274 275 275 275 276 277 280 282 284 285 286 287 288 289 289 290 290 289 289 289 289 287 284
267 267 267 266 266 266 266 266 266 266 266 266 266 266 267 267 267 268 269 270 272 273 273 274 274 275 276 277 278 280 282 283 283 285 285 286 287 287 288 288 286 284 286
266 266 266 266 265 265 265 265 265 265 265 265 265 265 265 265 266 266 267 267 268 270 272 273 273 274 275 275 276 277 278 279 280 281 282 284 285 286 286 285 286 286 285
Wind_Speed
21 21 19 17 18 20 31 38 39 42 46 51 52 53 52 50 48 48 47 48 52 53 55 56 58 56 58 57 56 53 50 49 47 52 46 44 42 35 32 30 24 27 26
26 26 26 23 23 23 24 26 33 39 41 46 49 51 52 52 50 50 49 49 52 54 54 54 56 55 56 54 52 53 50 49 48 46 44 45 39 36 35 33 29 30 29
30 29 27 27 27 27 27 27 27 28 32 39 43 47 49 50 49 51 49 48 48 54 53 53 52 53 55 56 55 53 52 50 49 48 44 43 41 36 37 37 34 36 30
34 33 33 30 29 30 31 29 30 29 29 30 36 42 47 48 50 52 55 47 51 53 52 49 52 55 56 56 54 53 52 47 46 45 46 46 44 40 39 38 35 37 33
40 38 37 36 34 34 33 33 32 32 34 34 31 33 41 45 49 50 53 53 50 54 53 53 53 56 55 55 54 53 52 43 41 50 48 48 46 46 43 40 36 38 35
40 41 41 40 40 39 37 36 37 35 34 35 36 34 34 39 45 48 51 51 50 56 56 59 56 54 54 53 53 52 53 45 50 51 53 55 51 50 44 42 40 41 34
44 44 43 44 44 44 42 39 37 38 37 38 38 38 39 39 39 42 46 49 53 52 58 58 59 55 54 52 50 50 52 52 51 54 51 54 48 47 42 40 42 37 36
46 46 45 44 45 45 46 45 43 40 39 40 41 42 43 45 42 40 39 42 49 57 58 57 58 58 54 53 52 46 49 54 53 51 53 52 45 43 36 40 35 34 34
48 49 50 48 46 46 46 47 46 45 44 43 41 42 45 48 45 42 39 40 47 52 56 57 58 59 55 57 55 54 42 48 48 49 54 52 50 44 37 33 36 34 35
47 50 50 49 48 47 45 46 47 45 46 46 47 45 42 47 47 45 41 41 44 49 51 55 58 54 57 54 52 56 47 48 45 49 55 54 50 44 41 39 39 38 38
47 47 48 49 47 46 45 43 44 45 46 47 48 47 46 44 43 42 42 40 43 46 51 54 55 51 48 56 51 52 50 42 42 51 48 54 50 47 40 37 36 37 37
46 47 46 46 46 45 44 43 41 42 45 47 48 49 47 44 41 38 36 38 38 43 51 53 54 51 45 50 53 56 47 42 42 46 50 53 52 45 42 37 35 34 33
45 46 45 43 42 41 41 40 38 37 40 44 47 49 50 47 42 39 35 34 34 36 46 49 49 46 41 46 49 49 52 46 45 46 47 50 49 45 38 34 32 31 32
42 44 44 43 41 40 40 38 36 34 37 40 41 44 47 47 44 39 35 31 30 30 35 43 46 46 43 44 47 50 53 49 46 49 50 50 49 44 38 37 36 38 37
40 41 42 41 40 40 39 39 36 32 30 37 40 39 41 43 43 40 38 40 35 31 30 33 40 45 45 47 49 48 50 49 49 48 49 51 49 44 41 38 39 40 42
38 39 40 42 41 39 40 42 35 32 30 27 28 32 33 34 36 36 35 34 32 26 33 36 39 42 45 48 49 48 46 47 48 48 49 52 50 45 44 42 43 44 44
33 35 37 38 40 41 40 40 44 40 30 27 22 22 23 30 30 29 27 28 25 25 32 35 39 40 41 45 48 48 48 49 49 49 50 48 46 45 47 46 48 47 47
31 30 32 34 36 38 38 37 38 39 41 38 28 28 26 27 27 26 25 23 24 23 26 30 35 36 38 40 43 45 46 48 48 49 48 46 46 46 48 49 51 52 51
30 31 33 31 31 33 35 36 37 37 38 38 38 33 32 27 24 21 19 18 23 24 24 25 29 34 34 35 37 40 43 45 44 45 46 48 47 47 49 52 54 55 52
28 28 29 31 32 33 33 34 35 36 37 38 39 41 42 36 33 30 26 23 19 14 13 20 29 30 31 33 34 36 37 37 38 41 44 47 48 49 52 55 56 56 54
28 28 29 29 29 30 31 31 32 33 34 36 36 36 35 36 36 34 32 30 27 24 21 18 17 22 28 30 32 34 36 37 39 40 42 45 47 49 50 51 52 53 51
28 28 28 29 29 29 29 29 30 31 31 34 35 35 35 35 35 35 34 32 31 27 24 20 17 15 16 22 29 30 33 37 38 40 44 46 47 50 51 51 50 48 44
27 28 28 27 28 28 29 29 30 31 32 32 33 34 35 35 34 34 33 32 31 30 28 25 20 17 15 16 18 24 30 35 37 39 43 45 46 50 49 47 45 44 40
26 27 28 28 28 28 29 30 31 31 31 32 33 33 33 33 33 33 32 32 30 29 28 27 25 21 18 15 15 15 19 25 30 34 37 42 45 46 45 44 42 37 40
27 27 28 28 29 29 30 30 30 31 31 32 32 32 33 33 33 33 32 32 30 29 27 26 25 24 21 17 13 10 12 15 18 23 30 35 38 40 38 35 35 37 38
27 27 28 28 29 29 30 31 31 31 31 32 32 33 33 33 33 33 33 32 31 30 28 26 25 23 21 19 17 12 7 5 6 10 16 22 25 29 30 32 36 38 38
Wind_Direction
337 333 330 321 319 299 286 286 283 282 281 277 273 274 275 274 273 267 267 267 263 261 260 259 260 260 258 255 256 255 250 251 247 260 262 265 265 268 263 268 261 253 245
347 338 339 326 315 313 309 296 290 286 285 281 277 275 274 274 272 270 270 270 264 262 261 259 260 259 258 255 252 253 249 251 249 251 260 264 264 269 262 262 261 262 253
348 346 341 334 326 315 310 306 299 291 287 282 277 269 265 264 267 268 270 269 272 266 262 260 262 260 253 255 254 249 250 256 255 257 256 256 264 260 256 260 258 255 250
345 342 341 339 332 326 318 307 303 299 292 287 281 276 270 269 265 265 265 271 268 271 264 266 266 262 259 257 251 249 250 250 253 255 253 249 258 255 253 254 252 258 246
338 337 335 332 329 327 322 318 304 297 296 294 286 280 275 269 268 265 265 267 272 268 272 271 267 265 262 259 255 252 249 248 258 250 246 249 249 251 250 255 251 245 239
334 332 330 327 324 322 320 317 317 306 294 291 289 285 277 273 272 268 265 267 267 267 270 267 270 268 266 264 260 260 257 245 247 250 246 250 253 255 255 253 251 230 233
331 328 326 324 321 320 318 315 313 314 307 292 287 285 282 279 275 270 269 265 265 266 265 264 262 266 268 265 261 261 258 256 251 252 255 254 256 254 252 248 239 229 253
328 326 324 322 319 317 315 315 313 310 308 305 292 285 283 279 278 278 274 266 265 262 261 266 265 265 265 264 261 259 256 252 251 250 256 259 256 256 248 249 247 246 239
326 324 323 324 321 318 315 313 311 308 304 301 303 293 283 280 281 281 279 267 260 259 261 261 261 264 265 265 260 255 257 258 254 252 253 255 255 250 242 237 228 225 227
325 324 324 325 324 320 318 314 311 309 304 301 297 298 296 286 281 281 282 272 261 260 262 263 259 262 262 267 260 257 253 252 256 253 247 248 248 244 240 233 230 234 236
327 326 325 325 323 322 319 316 314 311 306 303 299 296 295 297 291 283 280 276 262 260 260 262 262 259 262 262 264 258 254 253 253 250 251 244 238 237 229 222 234 240 239
330 329 328 325 324 323 321 319 317 316 312 308 306 299 296 299 300 294 286 278 269 255 260 262 263 265 258 259 267 257 258 252 249 250 248 238 232 226 219 230 235 235 236
335 335 332 329 326 325 323 321 319 320 317 316 314 309 302 302 303 303 298 291 280 266 254 261 266 263 265 262 265 258 248 249 244 249 245 236 230 224 223 226 224 227 226
341 341 340 336 332 329 328 327 320 316 313 312 313 312 311 308 307 306 302 297 292 279 267 252 259 263 258 257 259 252 246 244 248 250 244 235 222 216 216 222 221 219 215
350 349 349 344 341 336 331 330 326 318 311 305 305 309 308 308 308 308 304 291 290 293 284 269 258 257 256 252 251 248 243 241 241 238 234 224 216 214 215 218 221 218 212
353 353 355 351 346 344 339 333 332 330 325 317 310 309 310 309 310 305 301 296 283 285 282 276 265 260 257 254 249 244 240 237 234 232 225 220 216 215 216 214 215 213 213
356 356 355 355 351 352 348 346 341 337 336 332 325 312 307 302 307 303 299 296 287 278 278 278 275 270 263 258 253 249 243 238 233 226 222 220 220 218 218 215 212 212 214
349 353 354 356 354 353 354 354 354 352 348 345 342 340 327 317 316 314 302 298 300 291 283 281 275 274 271 263 257 249 242 234 227 223 224 225 224 222 219 217 216 214 215
345 346 346 350 353 353 353 354 357 359 360 357 354 350 353 351 342 329 326 334 317 308 301 293 286 273 273 266 257 250 241 234 230 229 229 229 227 225 222 221 218 217 216
340 343 343 345 347 347 351 354 355 357 360 3 5 8 359 359 3 3 2 354 345 321 320 301 292 292 286 278 267 256 248 245 245 243 238 234 231 228 224 219 214 212 213
341 342 342 345 349 349 349 350 351 354 357 358 1 6 1 9 10 9 6 5 2 352 340 324 301 299 295 287 277 265 258 254 250 246 240 234 230 224 217 216 212 213 211
341 344 344 346 346 348 350 350 351 352 356 354 354 359 3 9 10 9 7 4 4 3 359 344 329 309 281 269 275 280 271 260 254 247 239 235 231 223 217 212 207 208 205
340 342 344 346 346 346 347 350 351 352 354 353 354 355 357 359 1 2 2 2 2 2 2 0 350 329 312 289 268 257 256 260 263 255 243 236 225 220 217 213 212 205 203
338 338 340 342 343 344 346 347 349 350 352 352 352 353 353 353 352 352 354 355 357 359 360 1 2 358 345 327 302 283 271 262 258 254 250 241 230 224 219 214 206 204 197
335 335 337 338 340 341 342 344 345 346 347 348 349 349 348 348 347 347 347 347 347 351 353 355 355 356 358 351 344 325 292 276 270 261 248 238 235 228 214 204 200 196 205
331 331 333 334 336 337 338 339 340 342 342 343 343 343 343 343 343 343 342 342 341 342 341 344 346 346 346 345 341 337 330 308 274 257 243 232 220 209 206 200 205 211 213